| time (UTC) | temp F | wind direction | speed MPH | gust MPH | rain 1hr in | rain 24hr in | rain mn in | humidity % | barometer mb |
| 20260506202804 | 49 | 51 | 0.0 | 0.0 | 0.00 | 0.00 | 0.00 | 83 | 1013.2 |
| 20260506201804 | 49 | 57 | 2.0 | 3.0 | 0.00 | 0.00 | 0.00 | 83 | 1013.2 |
| 20260506201304 | 49 | 56 | 1.0 | 3.0 | 0.00 | 0.00 | 0.00 | 83 | 1013.1 |
| 20260506195306 | 49 | 57 | 2.0 | 3.0 | 0.00 | 0.00 | 0.00 | 82 | 1013.0 |
| 20260506194804 | 49 | 46 | 2.0 | 5.0 | 0.00 | 0.00 | 0.00 | 82 | 1013.0 |
| 20260506194304 | 49 | 46 | 2.0 | 3.0 | 0.00 | 0.00 | 0.00 | 81 | 1012.9 |
| 20260506193804 | 50 | 48 | 2.0 | 5.0 | 0.00 | 0.00 | 0.00 | 81 | 1012.9 |
| 20260506193304 | 50 | 33 | 2.0 | 5.0 | 0.00 | 0.00 | 0.00 | 80 | 1012.8 |
| 20260506192804 | 50 | 14 | 1.0 | 3.0 | 0.00 | 0.00 | 0.00 | 80 | 1012.8 |
| 20260506192305 | 50 | 18 | 2.0 | 5.0 | 0.00 | 0.00 | 0.00 | 80 | 1012.8 |
| 20260506191304 | 50 | 8 | 2.0 | 3.0 | 0.00 | 0.00 | 0.00 | 80 | 1012.7 |
| 20260506190304 | 50 | 60 | 3.0 | 6.0 | 0.00 | 0.00 | 0.00 | 80 | 1012.7 |
| 20260506184804 | 50 | 53 | 3.0 | 5.0 | 0.00 | 0.00 | 0.00 | 80 | 1012.6 |
| 20260506183303 | 50 | 32 | 2.0 | 5.0 | 0.00 | 0.00 | 0.00 | 80 | 1012.4 |
| 20260506182804 | 50 | 26 | 2.0 | 5.0 | 0.00 | 0.00 | 0.00 | 80 | 1012.4 |
| 20260506182306 | 50 | 47 | 3.0 | 8.0 | 0.00 | 0.00 | 0.00 | 79 | 1012.4 |
| 20260506181804 | 50 | 45 | 3.0 | 7.0 | 0.00 | 0.00 | 0.00 | 79 | 1012.4 |
| 20260506175803 | 51 | 48 | 3.0 | 7.0 | 0.00 | 0.00 | 0.00 | 79 | 1012.1 |
| 20260506175306 | 51 | 39 | 3.0 | 5.0 | 0.00 | 0.00 | 0.00 | 79 | 1012.0 |
| 20260506174304 | 51 | 53 | 4.0 | 9.0 | 0.00 | 0.00 | 0.00 | 79 | 1012.0 |
| 20260506173804 | 51 | 61 | 3.0 | 10.0 | 0.00 | 0.00 | 0.00 | 78 | 1012.0 |
| 20260506173303 | 51 | 63 | 4.0 | 10.0 | 0.00 | 0.00 | 0.00 | 78 | 1011.9 |
| 20260506170804 | 53 | 34 | 3.0 | 12.0 | 0.00 | 0.00 | 0.00 | 74 | 1011.8 |
| 20260506165804 | 54 | 29 | 3.0 | 5.0 | 0.00 | 0.00 | 0.00 | 72 | 1011.7 |
| 20260506163804 | 54 | 345 | 3.0 | 8.0 | 0.00 | 0.00 | 0.00 | 70 | 1011.6 |
| 20260506162804 | 54 | 29 | 3.0 | 8.0 | 0.00 | 0.00 | 0.00 | 69 | 1011.6 |
| 20260506161304 | 54 | 24 | 5.0 | 9.0 | 0.00 | 0.00 | 0.00 | 69 | 1011.7 |
| 20260506160804 | 54 | 342 | 5.0 | 13.0 | 0.00 | 0.00 | 0.00 | 69 | 1011.7 |
| 20260506160305 | 53 | 329 | 7.0 | 13.0 | 0.00 | 0.00 | 0.00 | 69 | 1011.7 |
| 20260506154804 | 54 | 25 | 6.0 | 12.0 | 0.00 | 0.00 | 0.00 | 69 | 1011.8 |
| 20260506154304 | 54 | 7 | 4.0 | 9.0 | 0.00 | 0.00 | 0.00 | 69 | 1011.8 |
| 20260506153304 | 54 | 353 | 4.0 | 8.0 | 0.00 | 0.00 | 0.00 | 69 | 1011.8 |
| 20260506152305 | 54 | 354 | 4.0 | 9.0 | 0.00 | 0.00 | 0.00 | 68 | 1011.6 |
| 20260506151804 | 55 | 34 | 5.0 | 12.0 | 0.00 | 0.00 | 0.00 | 68 | 1011.6 |
| 20260506145804 | 55 | 40 | 3.0 | 12.0 | 0.00 | 0.00 | 0.00 | 68 | 1011.7 |
| 20260506144804 | 54 | 52 | 4.0 | 12.0 | 0.00 | 0.00 | 0.00 | 69 | 1011.7 |
| 20260506143804 | 55 | 6 | 5.0 | 12.0 | 0.00 | 0.00 | 0.00 | 67 | 1011.7 |
| 20260506143304 | 55 | 20 | 4.0 | 8.0 | 0.00 | 0.00 | 0.00 | 67 | 1011.7 |
| 20260506142804 | 55 | 22 | 6.0 | 12.0 | 0.00 | 0.00 | 0.00 | 66 | 1011.7 |
| 20260506141804 | 56 | 7 | 6.0 | 15.0 | 0.00 | 0.00 | 0.00 | 65 | 1011.7 |
| 20260506141304 | 56 | 332 | 6.0 | 12.0 | 0.00 | 0.00 | 0.00 | 64 | 1011.5 |
| 20260506140804 | 56 | 350 | 6.0 | 12.0 | 0.00 | 0.00 | 0.00 | 64 | 1011.5 |
| 20260506140304 | 55 | 11 | 4.0 | 12.0 | 0.00 | 0.00 | 0.00 | 65 | 1011.6 |
| 20260506135804 | 55 | 23 | 7.0 | 12.0 | 0.00 | 0.00 | 0.00 | 65 | 1011.6 |
| 20260506134304 | 55 | 345 | 5.0 | 12.0 | 0.00 | 0.00 | 0.00 | 64 | 1011.7 |
| 20260506133304 | 56 | 13 | 5.0 | 12.0 | 0.00 | 0.00 | 0.00 | 63 | 1011.8 |
| 20260506132804 | 55 | 347 | 5.0 | 10.0 | 0.00 | 0.00 | 0.00 | 63 | 1011.8 |
| 20260506132307 | 54 | 24 | 5.0 | 10.0 | 0.00 | 0.00 | 0.00 | 64 | 1011.7 |
| 20260506125804 | 55 | 5 | 3.0 | 12.0 | 0.00 | 0.00 | 0.00 | 63 | 1011.8 |
| 20260506124804 | 55 | 337 | 5.0 | 12.0 | 0.00 | 0.00 | 0.00 | 62 | 1011.6 |
| 20260506121804 | 55 | 44 | 4.0 | 10.0 | 0.00 | 0.00 | 0.00 | 62 | 1011.6 |
| 20260506121304 | 55 | 24 | 6.0 | 12.0 | 0.00 | 0.00 | 0.00 | 65 | 1011.7 |
| 20260506115804 | 54 | 336 | 6.0 | 12.0 | 0.00 | 0.00 | 0.00 | 65 | 1011.7 |
| 20260506114804 | 54 | 1 | 6.0 | 12.0 | 0.00 | 0.00 | 0.00 | 64 | 1011.7 |
| 20260506114304 | 54 | 321 | 4.0 | 10.0 | 0.00 | 0.00 | 0.00 | 63 | 1011.7 |
| 20260506113804 | 54 | 32 | 2.0 | 9.0 | 0.00 | 0.00 | 0.00 | 63 | 1011.7 |
| 20260506113304 | 54 | 335 | 5.0 | 12.0 | 0.00 | 0.00 | 0.00 | 61 | 1011.6 |
| 20260506111303 | 53 | 339 | 6.0 | 12.0 | 0.00 | 0.00 | 0.00 | 64 | 1011.6 |
| 20260506105804 | 53 | 329 | 8.0 | 13.0 | 0.00 | 0.00 | 0.00 | 65 | 1011.6 |
| 20260506104804 | 53 | 23 | 6.0 | 13.0 | 0.00 | 0.00 | 0.00 | 65 | 1011.7 |
| 20260506103804 | 53 | 11 | 5.0 | 13.0 | 0.00 | 0.00 | 0.00 | 67 | 1011.8 |
| 20260506103304 | 53 | 27 | 7.0 | 13.0 | 0.00 | 0.00 | 0.00 | 67 | 1011.7 |
| 20260506102305 | 53 | 3 | 7.0 | 16.0 | 0.00 | 0.00 | 0.00 | 66 | 1011.6 |
| 20260506100803 | 53 | 33 | 6.0 | 13.0 | 0.00 | 0.00 | 0.00 | 68 | 1011.6 |
| 20260506095804 | 53 | 337 | 6.0 | 10.0 | 0.00 | 0.00 | 0.00 | 68 | 1011.6 |
| 20260506095305 | 53 | 12 | 6.0 | 14.0 | 0.00 | 0.00 | 0.00 | 69 | 1011.7 |
| 20260506094804 | 52 | 314 | 3.0 | 12.0 | 0.00 | 0.00 | 0.00 | 69 | 1011.7 |
| 20260506094304 | 52 | 39 | 5.0 | 12.0 | 0.00 | 0.00 | 0.00 | 69 | 1011.8 |
| 20260506092804 | 51 | 344 | 7.0 | 16.0 | 0.00 | 0.00 | 0.00 | 68 | 1011.7 |
| 20260506092306 | 52 | 6 | 5.0 | 12.0 | 0.00 | 0.00 | 0.00 | 70 | 1011.7 |
| 20260506091304 | 52 | 20 | 5.0 | 12.0 | 0.00 | 0.00 | 0.00 | 74 | 1011.7 |
| 20260506090304 | 50 | 339 | 5.0 | 9.0 | 0.00 | 0.00 | 0.00 | 77 | 1011.7 |
| 20260506085804 | 49 | 7 | 6.0 | 13.0 | 0.00 | 0.00 | 0.00 | 77 | 1011.7 |
| 20260506085306 | 49 | 23 | 5.0 | 12.0 | 0.00 | 0.00 | 0.00 | 77 | 1011.5 |
| 20260506084304 | 49 | 332 | 5.0 | 12.0 | 0.00 | 0.00 | 0.00 | 76 | 1011.5 |
| 20260506083304 | 50 | 298 | 3.0 | 10.0 | 0.00 | 0.00 | 0.00 | 78 | 1011.4 |
| 20260506082804 | 50 | 19 | 5.0 | 10.0 | 0.00 | 0.00 | 0.00 | 77 | 1011.4 |
| 20260506081304 | 48 | 331 | 6.0 | 10.0 | 0.00 | 0.00 | 0.00 | 79 | 1011.5 |
| 20260506080306 | 48 | 316 | 7.0 | 13.0 | 0.00 | 0.00 | 0.00 | 78 | 1011.5 |
| 20260506073304 | 48 | 345 | 3.0 | 9.0 | 0.00 | 0.00 | 0.00 | 79 | 1011.4 |
| 20260506072306 | 48 | 344 | 7.0 | 14.0 | 0.00 | 0.00 | 0.00 | 80 | 1011.3 |
| 20260506070804 | 47 | 328 | 5.0 | 12.0 | 0.00 | 0.00 | 0.00 | 82 | 1011.3 |
| 20260506070304 | 47 | 336 | 5.0 | 9.0 | 0.00 | 0.00 | 0.00 | 82 | 1011.2 |
| 20260506060804 | 45 | 12 | 3.0 | 9.0 | 0.00 | 0.00 | 0.00 | 86 | 1011.2 |
| 20260506060303 | 45 | 354 | 6.0 | 13.0 | 0.00 | 0.00 | 0.00 | 87 | 1011.0 |
| 20260506051304 | 45 | 16 | 4.0 | 12.0 | 0.00 | 0.01 | 0.00 | 87 | 1011.0 |
| 20260506050304 | 45 | 356 | 5.0 | 10.0 | 0.00 | 0.01 | 0.00 | 88 | 1010.9 |
| 20260506043804 | 46 | 6 | 6.0 | 12.0 | 0.00 | 0.01 | 0.00 | 88 | 1010.7 |
| 20260506043304 | 46 | 356 | 5.0 | 12.0 | 0.00 | 0.01 | 0.00 | 88 | 1010.6 |
| 20260506042804 | 46 | 6 | 4.0 | 12.0 | 0.00 | 0.01 | 0.00 | 88 | 1010.6 |
| 20260506041804 | 46 | 13 | 4.0 | 9.0 | 0.00 | 0.01 | 0.00 | 88 | 1010.6 |
| 20260506041304 | 46 | 349 | 3.0 | 9.0 | 0.00 | 0.01 | 0.00 | 88 | 1010.5 |
| 20260506040804 | 46 | 2 | 3.0 | 8.0 | 0.00 | 0.01 | 0.00 | 87 | 1010.5 |
| 20260506040304 | 46 | 48 | 3.0 | 9.0 | 0.00 | 0.01 | 0.00 | 87 | 1010.5 |
| 20260506034804 | 46 | 357 | 6.0 | 12.0 | 0.00 | 0.01 | 0.00 | 87 | 1010.5 |
| 20260506034304 | 47 | 10 | 3.0 | 10.0 | 0.00 | 0.01 | 0.00 | 87 | 1010.5 |
| 20260506033304 | 47 | 12 | 5.0 | 9.0 | 0.00 | 0.01 | 0.00 | 87 | 1010.6 |
| 20260506032804 | 47 | 356 | 5.0 | 9.0 | 0.00 | 0.01 | 0.00 | 87 | 1010.6 |
| 20260506032305 | 47 | 25 | 5.0 | 10.0 | 0.00 | 0.01 | 0.00 | 87 | 1010.5 |
| 20260506031304 | 47 | 356 | 3.0 | 10.0 | 0.00 | 0.01 | 0.00 | 86 | 1010.5 |
| 20260506030304 | 47 | 355 | 5.0 | 10.0 | 0.00 | 0.01 | 0.00 | 86 | 1010.6 |
| 20260506025305 | 47 | 14 | 4.0 | 9.0 | 0.00 | 0.01 | 0.00 | 86 | 1010.7 |
| 20260506024304 | 47 | 346 | 6.0 | 12.0 | 0.00 | 0.01 | 0.00 | 86 | 1010.7 |
| 20260506023804 | 47 | 354 | 5.0 | 12.0 | 0.00 | 0.01 | 0.00 | 85 | 1010.7 |
| 20260506023304 | 47 | 13 | 5.0 | 12.0 | 0.00 | 0.01 | 0.00 | 85 | 1010.8 |
| 20260506022804 | 47 | 24 | 4.0 | 10.0 | 0.00 | 0.01 | 0.00 | 85 | 1010.8 |
| 20260506022306 | 47 | 17 | 5.0 | 12.0 | 0.00 | 0.01 | 0.00 | 85 | 1010.8 |
| 20260506021304 | 48 | 36 | 6.0 | 12.0 | 0.00 | 0.01 | 0.00 | 85 | 1010.8 |
| 20260506020804 | 48 | 21 | 5.0 | 12.0 | 0.00 | 0.01 | 0.00 | 85 | 1010.8 |
| 20260506020304 | 48 | 29 | 4.0 | 12.0 | 0.00 | 0.01 | 0.00 | 85 | 1010.8 |
| 20260506015306 | 48 | 30 | 5.0 | 10.0 | 0.00 | 0.01 | 0.00 | 84 | 1010.8 |
| 20260506014804 | 48 | 27 | 6.0 | 12.0 | 0.00 | 0.01 | 0.00 | 84 | 1010.8 |
| 20260506014304 | 48 | 14 | 5.0 | 10.0 | 0.00 | 0.01 | 0.00 | 84 | 1010.9 |
| 20260506013804 | 48 | 11 | 6.0 | 12.0 | 0.00 | 0.01 | 0.00 | 84 | 1010.9 |
| 20260506013304 | 48 | 36 | 7.0 | 13.0 | 0.00 | 0.01 | 0.00 | 84 | 1010.9 |
| 20260506012804 | 48 | 21 | 6.0 | 12.0 | 0.00 | 0.01 | 0.00 | 84 | 1010.9 |
| 20260506012307 | 48 | 42 | 7.0 | 13.0 | 0.00 | 0.01 | 0.00 | 84 | 1010.9 |
| 20260506010304 | 49 | 36 | 7.0 | 13.0 | 0.00 | 0.01 | 0.00 | 85 | 1011.0 |
| 20260506005305 | 49 | 26 | 6.0 | 14.0 | 0.00 | 0.01 | 0.00 | 86 | 1011.0 |
| 20260506004805 | 49 | 10 | 5.0 | 12.0 | 0.00 | 0.01 | 0.00 | 87 | 1011.0 |
| 20260506002804 | 49 | 48 | 5.0 | 12.0 | 0.00 | 0.01 | 0.00 | 86 | 1011.1 |
| 20260506002306 | 49 | 17 | 5.0 | 9.0 | 0.00 | 0.01 | 0.00 | 86 | 1011.2 |
| 20260506001804 | 49 | 12 | 5.0 | 10.0 | 0.00 | 0.01 | 0.00 | 86 | 1011.2 |
| 20260505233304 | 50 | 31 | 3.0 | 9.0 | 0.00 | 0.01 | 0.00 | 83 | 1011.3 |
| 20260505232804 | 50 | 34 | 5.0 | 12.0 | 0.00 | 0.01 | 0.00 | 83 | 1011.3 |
| 20260505231804 | 50 | 18 | 6.0 | 10.0 | 0.00 | 0.01 | 0.00 | 82 | 1011.3 |
| 20260505225306 | 50 | 42 | 4.0 | 7.0 | 0.00 | 0.01 | 0.01 | 81 | 1011.4 |
| 20260505224804 | 50 | 38 | 5.0 | 9.0 | 0.00 | 0.01 | 0.01 | 81 | 1011.4 |
| 20260505224303 | 50 | 36 | 5.0 | 9.0 | 0.00 | 0.01 | 0.01 | 81 | 1011.4 |
| 20260505223804 | 50 | 23 | 5.0 | 12.0 | 0.00 | 0.01 | 0.01 | 80 | 1011.4 |
| 20260505223304 | 50 | 47 | 4.0 | 12.0 | 0.00 | 0.01 | 0.01 | 80 | 1011.4 |
| 20260505222804 | 50 | 26 | 4.0 | 9.0 | 0.00 | 0.01 | 0.01 | 80 | 1011.4 |
| 20260505222305 | 50 | 32 | 5.0 | 10.0 | 0.00 | 0.01 | 0.01 | 79 | 1011.4 |
| 20260505221803 | 50 | 37 | 4.0 | 9.0 | 0.00 | 0.01 | 0.01 | 79 | 1011.4 |
| 20260505220804 | 50 | 39 | 3.0 | 9.0 | 0.00 | 0.01 | 0.01 | 78 | 1011.5 |
| 20260505220303 | 51 | 24 | 5.0 | 12.0 | 0.00 | 0.01 | 0.01 | 78 | 1011.4 |
| 20260505215804 | 51 | 53 | 2.0 | 10.0 | 0.00 | 0.01 | 0.01 | 77 | 1011.4 |
| 20260505214804 | 51 | 45 | 3.0 | 9.0 | 0.00 | 0.01 | 0.01 | 77 | 1011.3 |
| 20260505213804 | 51 | 31 | 5.0 | 9.0 | 0.00 | 0.01 | 0.01 | 75 | 1011.3 |
| 20260505212804 | 51 | 7 | 2.0 | 8.0 | 0.00 | 0.01 | 0.01 | 75 | 1011.3 |
| 20260505212305 | 51 | 51 | 2.0 | 7.0 | 0.00 | 0.01 | 0.01 | 75 | 1011.4 |
| 20260505211804 | 51 | 25 | 3.0 | 7.0 | 0.00 | 0.01 | 0.01 | 74 | 1011.4 |
| 20260505211304 | 51 | 46 | 2.0 | 8.0 | 0.00 | 0.01 | 0.01 | 74 | 1011.4 |
| 20260505205305 | 51 | 37 | 4.0 | 12.0 | 0.00 | 0.01 | 0.01 | 72 | 1011.3 |
| 20260505204804 | 51 | 51 | 5.0 | 10.0 | 0.00 | 0.01 | 0.01 | 72 | 1011.3 |